الصفحة الرئيسية
METAR-TAF:

METAR-TAF

مطار :

جزيرة جروت آيلاند, أستراليا

دائرة عرض: 13-58-30S, خط طول: 136-27-36E, ارتفاع: 16 متر

مراقبة الطقس الحالي

تاريخ ووقت الإصدار 25 دقيقة قبل الساعة 03:00UTC
ريح 7 عقدة من الشرق/الجنوب الشرقي, الاتجاه يتراوح بين الشرق و الجنوب/الجنوب الشرقي
درجة الحرارة 30°درجة مئوية
الرطوبة 55%
ضغط 1015 hPa
الرؤية 10 كم أو أكثر

METAR: YGTE 300300Z AUTO 12007KT 100V160 9999 // NCD 30/20 Q1015

زمن: 12:55 (03:25 UTC)


TAF: مفقودة

أرصاد الطقس والتوقعات من أكثر من 4000 مطار (تقارير الطقس للمطار METAR والتنبؤ بالطقس بالمطارTAF).

المحطات المتاحة هي النقط الصفراء والحمراء على الخريطة.

حرك المؤشر فوق النقطة لمعرفة اسم المحطة.

ثم انقر لمعرفة أرصاد وتوقعات الطقس.

لتغيير الخارطة: اضغط على الأزرار الخضراء مع رمز الصليب الأسود للتكبير. على الزر الأخضر مع شرطة للتصغير، أو على الأسهم الخضراء للخرائط المجاورة.


METAR-TAF: